Regional Weather Roundup
Issued by NWS

Home | Current Version | Previous Version | Graphics & Text | Print | Product List | Glossary On
Versions: 1 2 3 4 5 6 7 8 9 10 11 12 13 14 15 16 17 18 19 20 21 22 23 24 25 26 27 28 29 30 31 32 33 34 35 36 37 38 39 40 41 42 43 44 45 46 47 48 49 50
000
ASUS43 KLOT 242210
RWRIL

ILLINOIS REGIONAL WEATHER ROUNDUP
NATIONAL WEATHER SERVICE CHICAGO/ROMEOVILLE IL
500 PM CDT FRI OCT 24 2014

NOTE: "FAIR" INDICATES FEW OR NO CLOUDS BELOW 12,000 FEET WITH NO
SIGNIFICANT WEATHER AND/OR OBSTRUCTIONS TO VISIBILITY.

* THESE STATIONS ARE NOT UNDER NWS QUALITY CONTROL. THEY ALSO MAY NOT
  REPORT WEATHER SUCH AS PRECIPITATION OR FOG.

ILZ001-002-007-009-015-016-024-242300-
NORTHWEST ILLINOIS

CITY           SKY/WX    TMP DP  RH WIND       PRES   REMARKS
MOLINE         CLOUDY    68  52  56 S10       29.92F
STERLING*      SUNNY     66  45  45 SW3       29.95S
SAVANNA*       PTSUNNY   66  48  53 S9        29.91F
$$

ILZ003-004-008-010-011-017-018-242300-
NORTH CENTRAL ILLINOIS

CITY           SKY/WX    TMP DP  RH WIND       PRES   REMARKS
ROCKFORD       CLOUDY    63  50  62 S7        29.96F
FREEPORT*      MOSUNNY   61  51  70 S8        29.96F
ROCHELLE*      PTCLDY    65  46  51 SW8       29.96S
DE KALB*       PTCLDY    62  45  54 SW8       29.97S
PERU*          SUNNY     67  48  51 SW10      29.97S
$$

ILZ005-006-012>014-019>023-242300-
NORTHEAST ILLINOIS

CITY           SKY/WX    TMP DP  RH WIND       PRES   REMARKS
CHICAGO-OHARE  MOCLDY    65  46  50 SW8       29.95F
CHICAGO-MIDWAY MOCLDY    67  48  50 SW9       29.96F
AURORA         PTCLDY    66  46  48 SW7       29.96F
LANSING*       PTCLDY    65  48  55 W3        29.97F
JOLIET*        PTCLDY    67  44  43 SW3       29.97S
WAUKEGAN       CLEAR     55  50  83 SE5       29.95F HAZE
DUPAGE AIRPORT PTCLDY    66  45  46 SW8       29.95F
KANKAKEE*      PTCLDY    68  45  43 W7        29.98F
WHEELING       PTCLDY    67  45  45 SW5       29.96F
MORRIS*        PTCLDY    68  48  49 SW6       29.96S
ROMEOVILLE*    PTCLDY    67  42  40 SW7       29.97S
NORTHERLY ISL    N/A     65  47  52 S6          N/A
$$

LMZ740>746-242300-
SOUTHERN LAKE MICHIGAN

STATION/POSITION SKY/WX   TEMP    WIND        PRES    VSBY  WAVE
                          AIR SEA DIR/SP/G                  HT/PER
                          (F)     (DEG/KT/KT) (MB)    (MI)  (FT/S)
SOUTHERN BUOY              53 54  180/  4/  6 1015.0F
WAUKEGAN HARBOR            56     120/  2/  3   N/A
HARRISON CRIB              57     130/ 12/ 13   N/A
BURNHAM HARBOR             66     250/  6/  9   N/A
CALUMET HARBOR             66     220/  4/  9 1013.5F
MICHIGAN CITY              56      30/  3/  3   N/A
$$

ILZ025>027-034>036-040-047-049-050-058-095>099-242300-
WEST-CENTRAL ILLINOIS

CITY           SKY/WX    TMP DP  RH WIND       PRES   REMARKS
QUINCY         MOSUNNY   69  55  60 S8        29.96F
GALESBURG*     MOSUNNY   67  55  64 S12       29.95F
MACOMB*        SUNNY     69  52  54 S12       29.98S
JACKSONVILLE*  PTSUNNY   71  52  50 S8        29.98F
PITTSFIELD*    MOSUNNY   71  51  49 S8        29.98F
$$

ILZ028>032-037-038-041>044-048-051>054-059>061-242300-
CENTRAL ILLINOIS

CITY           SKY/WX    TMP DP  RH WIND       PRES   REMARKS
PONTIAC        PTCLDY    69  48  46 SW8       29.98F
BLOOMINGTON    SUNNY     65  54  67 SW12      30.00F
DECATUR        SUNNY     62  55  77 SW8       30.02F
PEORIA         MOSUNNY   65  51  60 S9        29.97F
LACON*         SUNNY     64  48  56 SW6       29.97R
LINCOLN*       MOSUNNY   65  53  63 S5        29.97F
SPRINGFIELD    MOSUNNY   69  50  50 S7        29.99F
TAYLORVILLE    MOSUNNY   64  52  63 S8        30.01F
$$

ILZ033-039-045-046-055>057-062-063-242300-
EAST-CENTRAL ILLINOIS

CITY           SKY/WX    TMP DP  RH WIND       PRES   REMARKS
CHAMPAIGN      SUNNY     66  54  65 W10       30.01S
DANVILLE*      CLEAR     66  51  60 SW8       29.98S
RANTOUL*       CLEAR     69  51  51 SW10      30.00S
MATTOON        SUNNY     65  54  67 W9        30.02S
PARIS*         PTCLDY    68  53  57 W8        30.02S
$$

ILZ079-100>102-242300-
SOUTHWEST ILLINOIS

CITY           SKY/WX    TMP DP  RH WIND       PRES   REMARKS
ALTON          MOSUNNY   70  46  43 SW7       30.02F
BELLEVILLE     MOSUNNY   72  51  48 SW6       30.02F
CAHOKIA*       SUNNY     73  50  44 S5        30.02F
SPARTA*        MOSUNNY   71  49  45 CALM      30.05S
$$

ILZ064>066-069>071-074>076-080>082-084>086-088>090-092>094-242300-
SOUTH-CENTRAL ILLINOIS

CITY           SKY/WX    TMP DP  RH WIND       PRES   REMARKS
CARBONDALE     MOSUNNY   70  52  52 SW6       30.05F
CAIRO*         MOSUNNY   73  53  49 CALM      30.06S
EFFINGHAM*     SUNNY     67  51  57 W8        30.04S
MARION         MOSUNNY   70  54  56 SW6       30.06F
MT. VERNON     MOSUNNY   66  52  59 SW3       30.05F
CENTRALIA*     MOSUNNY   67  51  55 SW6       30.04S
SALEM*         MOSUNNY   68  56  65 W6        30.05S
METROPOLIS*    SUNNY     69  55  62 CALM      30.05S
$$

ILZ067-068-072-073-078-083-087-091-242300-
SOUTHEAST ILLINOIS

CITY           SKY/WX    TMP DP  RH WIND       PRES   REMARKS
LAWRENCEVILLE  PTSUNNY   70  52  52 SW10      30.03S
FLORA*         MOSUNNY   69  51  53 W7        30.04S
FAIRFIELD*     PTSUNNY   70  52  52 W5        30.03S
HARRISBURG*    SUNNY     67  54  64 W3        30.06S
ROBINSON*      MOSUNNY   72  53  50 W7        30.04R
CARMI*         MOSUNNY   71  56  58 W6        30.04R
$$

ABBREVIATIONS USED IN REMARKS
   TC - TEMPERATURE IN CELSIUS
  WCI - WIND CHILL INDEX
   HX - HEAT INDEX
  VSB - VISIBILITY
$$




USA.gov is the U.S. government's official web portal to all federal, state and local government web resources and services.